IGO6066 VOHS-VOBL

Flight info

Callsign IGO6066
Flight time 0h 45m
Altitude 32000
Route LURGI5 LURGI Q21 TELUV TELUV7E
Aircraft A21N/M-SDE2E3FGHIRWXY/LB1

Departure

Time 2026-04-18 03:05
Airport Rajiv Gandhi International Airport (VOHS)

Arrival

Time 2026-04-18 03:50
Airport Kempegowda International Airport Bengaluru (VOBL)
Time Latitude Longitude Altitude Speed Heading
2026-04-18 02:52 17.23400 78.42956 2001 ft 0 kts 360°
2026-04-18 02:55 17.23394 78.42956 2001 ft 2 kts 360°
2026-04-18 02:55 17.23379 78.42956 2001 ft 2 kts 359°
2026-04-18 02:55 17.23364 78.42956 2001 ft 2 kts 360°
2026-04-18 02:56 17.23348 78.42956 2002 ft 2 kts
2026-04-18 02:56 17.23335 78.42950 2002 ft 2 kts 53°
2026-04-18 02:56 17.23331 78.42931 2001 ft 1 kts 90°
2026-04-18 02:58 17.23331 78.42929 2001 ft 0 kts 89°
2026-04-18 02:59 17.23331 78.42931 2001 ft 0 kts 90°
2026-04-18 02:59 17.23331 78.42939 2002 ft 2 kts 90°
2026-04-18 02:59 17.23331 78.42959 2002 ft 3 kts 88°
2026-04-18 03:00 17.23332 78.42989 2004 ft 4 kts 88°
2026-04-18 03:00 17.23333 78.43029 2005 ft 6 kts 88°
2026-04-18 03:00 17.23335 78.43079 2007 ft 7 kts 88°
2026-04-18 03:00 17.23325 78.43137 2009 ft 8 kts 123°
2026-04-18 03:01 17.23266 78.43166 2010 ft 10 kts 181°
2026-04-18 03:01 17.23178 78.43169 2010 ft 14 kts 178°
2026-04-18 03:01 17.23097 78.43220 2011 ft 15 kts 95°
2026-04-18 03:01 17.23094 78.43336 2014 ft 16 kts 90°
2026-04-18 03:02 17.23094 78.43462 2017 ft 17 kts 86°
2026-04-18 03:02 17.23097 78.43591 2021 ft 18 kts 89°
2026-04-18 03:02 17.23099 78.43722 2026 ft 18 kts 90°
2026-04-18 03:02 17.23102 78.43855 2030 ft 18 kts 89°
2026-04-18 03:03 17.23102 78.43991 2035 ft 18 kts 90°
2026-04-18 03:03 17.23104 78.44129 2039 ft 19 kts 89°
2026-04-18 03:03 17.23100 78.44258 2041 ft 16 kts 108°
2026-04-18 03:03 17.23000 78.44307 2041 ft 18 kts 175°
2026-04-18 03:04 17.22903 78.44235 2037 ft 21 kts 262°
2026-04-18 03:04 17.22896 78.44046 2034 ft 43 kts 265°
2026-04-18 03:04 17.22888 78.43516 2019 ft 100 kts 268°
2026-04-18 03:04 17.22874 78.42617 1987 ft 148 kts 268°
2026-04-18 03:05 17.22863 78.41393 2051 ft 176 kts 268°
2026-04-18 03:05 17.22895 78.40134 2496 ft 171 kts 270°
2026-04-18 03:05 17.22948 78.38861 2746 ft 183 kts 269°
2026-04-18 03:05 17.22976 78.37476 2949 ft 202 kts 268°
2026-04-18 03:06 17.22655 78.35996 3130 ft 216 kts 235°
2026-04-18 03:06 17.21448 78.35046 3328 ft 231 kts 194°
2026-04-18 03:06 17.19814 78.35041 3693 ft 243 kts 169°
2026-04-18 03:06 17.18107 78.35462 4041 ft 260 kts 165°
2026-04-18 03:07 17.16307 78.35916 4517 ft 270 kts 166°
2026-04-18 03:07 17.14453 78.36330 5136 ft 274 kts 167°
2026-04-18 03:07 17.12576 78.36704 5748 ft 277 kts 168°
2026-04-18 03:07 17.10674 78.37056 6332 ft 281 kts 169°
2026-04-18 03:08 17.08734 78.37394 6916 ft 284 kts 169°
2026-04-18 03:08 17.06758 78.37727 7513 ft 288 kts 169°
2026-04-18 03:08 17.04760 78.38057 8088 ft 291 kts 169°
2026-04-18 03:08 17.02763 78.38382 8656 ft 295 kts 169°
2026-04-18 03:09 17.00701 78.38715 9247 ft 299 kts 169°
2026-04-18 03:09 16.98651 78.39046 9836 ft 302 kts 169°
2026-04-18 03:09 16.96560 78.39381 10387 ft 307 kts 169°
2026-04-18 03:09 16.94387 78.39731 10676 ft 323 kts 169°
2026-04-18 03:10 16.92105 78.40097 10954 ft 338 kts 169°
2026-04-18 03:10 16.89727 78.40478 11401 ft 346 kts 169°
2026-04-18 03:10 16.87360 78.40853 11992 ft 348 kts 169°
2026-04-18 03:10 16.84929 78.41239 12609 ft 351 kts 169°
2026-04-18 03:11 16.82519 78.41622 13193 ft 353 kts 169°
2026-04-18 03:11 16.80085 78.42010 13761 ft 356 kts 169°
2026-04-18 03:11 16.77607 78.42406 14320 ft 358 kts 169°
2026-04-18 03:11 16.75137 78.42801 14859 ft 360 kts 169°
2026-04-18 03:12 16.72653 78.43197 15366 ft 363 kts 169°
2026-04-18 03:12 16.70160 78.43594 15843 ft 365 kts 169°
2026-04-18 03:12 16.67654 78.43995 16311 ft 367 kts 169°
2026-04-18 03:12 16.65090 78.44404 16764 ft 369 kts 169°
2026-04-18 03:13 16.62555 78.44809 17198 ft 371 kts 169°
2026-04-18 03:13 16.59998 78.45217 17643 ft 373 kts 169°
2026-04-18 03:13 16.57431 78.45628 18088 ft 375 kts 170°
2026-04-18 03:13 16.54816 78.46046 18539 ft 376 kts 170°
2026-04-18 03:14 16.52224 78.46460 18982 ft 378 kts 170°
2026-04-18 03:14 16.49627 78.46874 19416 ft 380 kts 170°
2026-04-18 03:14 16.46983 78.47295 19856 ft 381 kts 171°
2026-04-18 03:14 16.44376 78.47711 20296 ft 383 kts 171°
2026-04-18 03:15 16.41722 78.48134 20740 ft 384 kts 171°
2026-04-18 03:15 16.39086 78.48555 21174 ft 386 kts 171°
2026-04-18 03:15 16.36425 78.48980 21616 ft 387 kts 171°
2026-04-18 03:15 16.33764 78.49406 22051 ft 388 kts 171°
2026-04-18 03:16 16.31058 78.49838 22468 ft 390 kts 171°
2026-04-18 03:16 16.28379 78.50265 22874 ft 392 kts 172°
2026-04-18 03:16 16.25635 78.50700 23129 ft 398 kts 172°
2026-04-18 03:16 16.22892 78.51050 23414 ft 402 kts 176°
2026-04-18 03:17 16.20075 78.51109 23775 ft 405 kts 182°
2026-04-18 03:17 16.17261 78.50857 24146 ft 406 kts 188°
2026-04-18 03:17 16.14415 78.50425 24325 ft 413 kts 189°
2026-04-18 03:17 16.11567 78.49959 24483 ft 420 kts 189°
2026-04-18 03:18 16.08633 78.49475 24632 ft 427 kts 189°
2026-04-18 03:18 16.05656 78.48988 24775 ft 433 kts 189°
2026-04-18 03:18 16.02657 78.48499 24913 ft 440 kts 189°
2026-04-18 03:18 15.99624 78.48009 25042 ft 445 kts 189°
2026-04-18 03:19 15.96508 78.47507 25165 ft 451 kts 189°
2026-04-18 03:19 15.93385 78.47004 25284 ft 456 kts 189°
2026-04-18 03:19 15.90251 78.46500 25392 ft 461 kts 189°
2026-04-18 03:19 15.87057 78.45989 25513 ft 466 kts 189°
2026-04-18 03:20 15.83849 78.45477 25747 ft 467 kts 189°
2026-04-18 03:20 15.80626 78.44964 26087 ft 466 kts 189°
2026-04-18 03:20 15.77425 78.44454 26458 ft 464 kts 189°
2026-04-18 03:20 15.74236 78.43945 26793 ft 463 kts 189°
2026-04-18 03:21 15.71054 78.43436 27105 ft 463 kts 189°
2026-04-18 03:21 15.67833 78.42923 27437 ft 462 kts 190°
2026-04-18 03:21 15.64652 78.42415 27784 ft 461 kts 190°
2026-04-18 03:21 15.61481 78.41909 28123 ft 460 kts 190°
2026-04-18 03:22 15.58320 78.41404 28464 ft 459 kts 190°
2026-04-18 03:22 15.55162 78.40900 28797 ft 459 kts 191°
2026-04-18 03:22 15.52017 78.40398 29127 ft 458 kts 191°
2026-04-18 03:22 15.48868 78.39895 29467 ft 457 kts 191°
2026-04-18 03:23 15.45720 78.39391 29825 ft 456 kts 191°
2026-04-18 03:23 15.42581 78.38892 30201 ft 454 kts 191°
2026-04-18 03:23 15.39429 78.38390 30533 ft 454 kts 191°
2026-04-18 03:23 15.36328 78.37895 30817 ft 454 kts 191°
2026-04-18 03:24 15.33215 78.37401 31089 ft 454 kts 191°
2026-04-18 03:24 15.30078 78.36903 31361 ft 454 kts 191°
2026-04-18 03:24 15.26915 78.36401 31617 ft 455 kts 191°
2026-04-18 03:24 15.23802 78.35905 31836 ft 456 kts 191°
2026-04-18 03:25 15.17511 78.34891 31879 ft 457 kts 191°
2026-04-18 03:25 15.11189 78.33873 31891 ft 457 kts 191°
2026-04-18 03:26 15.04894 78.32864 31897 ft 457 kts 191°
2026-04-18 03:26 14.98616 78.31860 31900 ft 457 kts 191°
2026-04-18 03:27 14.92301 78.30853 31905 ft 458 kts 190°
2026-04-18 03:27 14.86014 78.29856 31905 ft 457 kts 190°
2026-04-18 03:28 14.79725 78.28854 31907 ft 457 kts 191°
2026-04-18 03:28 14.73419 78.27835 31907 ft 457 kts 190°
2026-04-18 03:29 14.67101 78.26820 31909 ft 458 kts 190°
2026-04-18 03:29 14.60796 78.25809 31911 ft 457 kts 190°
2026-04-18 03:30 14.54470 78.24796 31913 ft 458 kts 190°
2026-04-18 03:30 14.48193 78.23792 31918 ft 458 kts 190°
2026-04-18 03:31 14.41870 78.22784 31927 ft 457 kts 190°
2026-04-18 03:31 14.35559 78.21778 31936 ft 458 kts 190°
2026-04-18 03:32 14.29275 78.20778 31945 ft 458 kts 190°
2026-04-18 03:32 14.22956 78.19749 31953 ft 458 kts 191°
2026-04-18 03:33 14.16751 78.18232 31966 ft 457 kts 197°
2026-04-18 03:33 14.10761 78.16042 31559 ft 452 kts 203°
2026-04-18 03:34 14.07876 78.14721 30656 ft 455 kts 205°
2026-04-18 03:34 14.04999 78.13345 29481 ft 463 kts 206°
2026-04-18 03:34 14.02090 78.11945 28266 ft 470 kts 206°
2026-04-18 03:34 13.99098 78.10501 27066 ft 476 kts 205°
2026-04-18 03:35 13.96092 78.09052 25896 ft 480 kts 205°
2026-04-18 03:35 13.93084 78.07606 24714 ft 483 kts 205°
2026-04-18 03:35 13.90053 78.06153 23515 ft 485 kts 204°
2026-04-18 03:35 13.87005 78.04698 22772 ft 476 kts 204°
2026-04-18 03:36 13.84020 78.03278 22167 ft 467 kts 204°
2026-04-18 03:36 13.81077 78.01878 21538 ft 458 kts 203°
2026-04-18 03:36 13.78228 78.00497 20934 ft 451 kts 206°
2026-04-18 03:36 13.75714 77.98594 20272 ft 448 kts 224°
2026-04-18 03:37 13.73671 77.96211 19734 ft 441 kts 229°
2026-04-18 03:37 13.71743 77.93809 19213 ft 434 kts 229°
2026-04-18 03:37 13.69852 77.91461 18717 ft 427 kts 229°
2026-04-18 03:37 13.67943 77.89130 18235 ft 420 kts 228°
2026-04-18 03:38 13.66061 77.86866 17775 ft 413 kts 228°
2026-04-18 03:38 13.64210 77.84662 17338 ft 407 kts 228°
2026-04-18 03:38 13.62356 77.82468 16920 ft 401 kts 227°
2026-04-18 03:38 13.60543 77.80329 16529 ft 395 kts 227°
2026-04-18 03:39 13.58751 77.78221 16149 ft 389 kts 227°
2026-04-18 03:39 13.56973 77.76130 15780 ft 384 kts 227°
2026-04-18 03:39 13.55238 77.74091 15424 ft 378 kts 227°
2026-04-18 03:39 13.53515 77.72067 15079 ft 372 kts 227°
2026-04-18 03:40 13.51824 77.70081 14806 ft 365 kts 227°
2026-04-18 03:40 13.50178 77.68147 14537 ft 358 kts 227°
2026-04-18 03:40 13.48561 77.66250 14269 ft 350 kts 227°
2026-04-18 03:40 13.46962 77.64374 14005 ft 344 kts 227°
2026-04-18 03:41 13.45397 77.62538 13747 ft 337 kts 227°
2026-04-18 03:41 13.43873 77.60751 13491 ft 331 kts 227°
2026-04-18 03:41 13.42377 77.58998 13237 ft 325 kts 227°
2026-04-18 03:41 13.40901 77.57267 12959 ft 320 kts 227°
2026-04-18 03:42 13.39441 77.55556 12675 ft 315 kts 227°
2026-04-18 03:42 13.38002 77.53869 12362 ft 310 kts 227°
2026-04-18 03:42 13.36586 77.52210 11955 ft 308 kts 227°
2026-04-18 03:42 13.35193 77.50581 11504 ft 306 kts 228°
2026-04-18 03:43 13.33781 77.48929 11064 ft 303 kts 228°
2026-04-18 03:43 13.32411 77.47325 10624 ft 302 kts 228°
2026-04-18 03:43 13.30875 77.45875 10156 ft 297 kts 206°
2026-04-18 03:43 13.28946 77.45242 9772 ft 287 kts 187°
2026-04-18 03:44 13.26971 77.44907 9401 ft 286 kts 185°
2026-04-18 03:44 13.25010 77.44591 9058 ft 285 kts 186°
2026-04-18 03:44 13.23049 77.44244 8743 ft 283 kts 186°
2026-04-18 03:44 13.21100 77.44061 8403 ft 275 kts 168°
2026-04-18 03:45 13.19375 77.44703 8098 ft 260 kts 139°
2026-04-18 03:45 13.18252 77.46065 7851 ft 243 kts 108°
2026-04-18 03:45 13.18027 77.47684 7722 ft 226 kts 79°
2026-04-18 03:45 13.18417 77.49213 7586 ft 216 kts 71°
2026-04-18 03:46 13.18894 77.50642 7413 ft 209 kts 71°
2026-04-18 03:46 13.19373 77.52033 7147 ft 206 kts 71°
2026-04-18 03:46 13.19845 77.53400 6878 ft 197 kts 71°
2026-04-18 03:46 13.20283 77.54671 6543 ft 186 kts 73°
2026-04-18 03:47 13.20591 77.55911 6221 ft 170 kts 81°
2026-04-18 03:47 13.20720 77.57038 6095 ft 149 kts 86°
2026-04-18 03:47 13.20776 77.58067 6017 ft 142 kts 89°
2026-04-18 03:47 13.20778 77.59084 5943 ft 144 kts 88°
2026-04-18 03:48 13.20776 77.60114 5607 ft 144 kts 90°
2026-04-18 03:48 13.20793 77.61142 5284 ft 146 kts 87°
2026-04-18 03:48 13.20796 77.62180 4884 ft 147 kts 89°
2026-04-18 03:48 13.20722 77.63227 4453 ft 151 kts 91°
2026-04-18 03:49 13.20708 77.64335 4070 ft 156 kts 85°
2026-04-18 03:49 13.20747 77.65453 3749 ft 159 kts 90°
2026-04-18 03:49 13.20704 77.66589 3518 ft 160 kts 90°
2026-04-18 03:49 13.20714 77.67741 3288 ft 163 kts 89°
2026-04-18 03:50 13.20703 77.68897 3027 ft 158 kts 89°
2026-04-18 03:50 13.20699 77.69875 2992 ft 103 kts 91°
2026-04-18 03:50 13.20693 77.70309 2984 ft 31 kts 83°
2026-04-18 03:50 13.20650 77.70522 2977 ft 31 kts 117°
2026-04-18 03:51 13.20548 77.70705 2969 ft 23 kts 118°
2026-04-18 03:51 13.20528 77.70878 2959 ft 26 kts 90°
2026-04-18 03:51 13.20527 77.71075 2949 ft 28 kts 89°
2026-04-18 03:51 13.20523 77.71242 2943 ft 22 kts 109°
2026-04-18 03:52 13.20420 77.71276 2949 ft 12 kts 164°
2026-04-18 03:52 13.20354 77.71277 2953 ft 7 kts 184°
2026-04-18 03:52 13.20315 77.71275 2955 ft 3 kts 182°
2026-04-18 03:52 13.20299 77.71275 2956 ft 1 kts 182°
2026-04-18 03:53 13.20293 77.71274 2956 ft 0 kts 182°
2026-04-18 03:53 13.20284 77.71274 2957 ft 2 kts 182°
2026-04-18 03:53 13.20262 77.71269 2958 ft 4 kts 196°
2026-04-18 03:53 13.20227 77.71261 2960 ft 6 kts 189°
2026-04-18 03:54 13.20189 77.71259 2962 ft 0 kts 182°